TimeEDT,TemperatureF,Dew PointF,Humidity,Sea Level PressureIn,VisibilityMPH,Wind Direction,Wind SpeedMPH,Gust SpeedMPH,PrecipitationIn,Events,Conditions,WindDirDegrees,DateUTC
12:02 AM,42.8,39.2,87,29.44,9.0,SW,8.1,-,0.00,Rain,Light Rain,220,2012-11-01 04:02:00
12:54 AM,43.0,41.0,93,29.44,8.0,SSW,5.8,-,0.01,Rain,Light Rain,210,2012-11-01 04:54:00
1:15 AM,44.6,42.8,93,29.43,7.0,SSW,8.1,-,0.02,Rain,Light Rain,210,2012-11-01 05:15:00
1:54 AM,45.0,43.0,93,29.44,10.0,WSW,8.1,-,0.04,Rain,Light Rain,240,2012-11-01 05:54:00
2:54 AM,45.0,42.1,90,29.44,10.0,WSW,10.4,-,0.01,Rain,Light Rain,240,2012-11-01 06:54:00
3:54 AM,44.1,42.1,93,29.44,10.0,WSW,11.5,-,0.00,Rain,Light Rain,250,2012-11-01 07:54:00
4:54 AM,44.1,42.1,93,29.45,10.0,WSW,10.4,-,0.02,Rain,Light Rain,250,2012-11-01 08:54:00
5:54 AM,44.1,41.0,89,29.45,10.0,WSW,9.2,-,0.01,Rain,Light Rain,250,2012-11-01 09:54:00
6:33 AM,44.6,41.0,87,29.45,10.0,West,10.4,-,0.03,Rain,Light Rain,260,2012-11-01 10:33:00
6:54 AM,44.1,41.0,89,29.46,10.0,West,8.1,-,0.03,Rain,Light Rain,260,2012-11-01 10:54:00
7:22 AM,44.6,41.0,87,29.46,10.0,West,10.4,19.6,0.01,Rain,Light Rain,270,2012-11-01 11:22:00
7:54 AM,43.0,39.9,89,29.47,10.0,West,13.8,20.7,0.02,Rain,Light Rain,270,2012-11-01 11:54:00
8:54 AM,43.0,39.9,89,29.49,8.0,West,13.8,20.7,0.01,Rain,Light Rain,260,2012-11-01 12:54:00
9:54 AM,44.1,39.0,82,29.51,10.0,West,15.0,23.0,0.00,Rain,Light Rain,260,2012-11-01 13:54:00
10:10 AM,44.6,39.2,81,29.50,10.0,West,16.1,21.9,0.00,Rain,Light Rain,270,2012-11-01 14:10:00
10:29 AM,44.6,39.2,81,29.51,10.0,West,15.0,-,0.00,Rain,Light Rain,270,2012-11-01 14:29:00
10:54 AM,44.1,39.0,82,29.52,10.0,West,11.5,21.9,0.00,Rain,Light Rain,270,2012-11-01 14:54:00
11:46 AM,44.6,41.0,87,29.52,10.0,West,13.8,20.7,0.00,,Overcast,260,2012-11-01 15:46:00
11:54 AM,44.1,39.9,85,29.53,10.0,West,13.8,21.9,0.00,,Overcast,270,2012-11-01 15:54:00
12:54 PM,46.0,39.9,79,29.52,10.0,West,17.3,23.0,0.00,Rain,Light Rain,260,2012-11-01 16:54:00
1:54 PM,45.0,39.0,80,29.52,10.0,WSW,11.5,21.9,0.00,,Overcast,250,2012-11-01 17:54:00
2:54 PM,45.0,37.9,76,29.53,10.0,West,17.3,24.2,N/A,,Overcast,260,2012-11-01 18:54:00
3:54 PM,45.0,37.9,76,29.54,10.0,West,15.0,21.9,0.00,,Overcast,260,2012-11-01 19:54:00
4:54 PM,45.0,37.9,76,29.55,10.0,West,16.1,24.2,N/A,,Overcast,270,2012-11-01 20:54:00
5:54 PM,45.0,37.9,76,29.56,10.0,WSW,13.8,20.7,N/A,,Overcast,250,2012-11-01 21:54:00
6:54 PM,43.0,39.0,86,29.58,10.0,West,10.4,-,0.02,,Overcast,270,2012-11-01 22:54:00
7:54 PM,43.0,37.9,82,29.60,10.0,West,11.5,-,0.00,,Light Drizzle,270,2012-11-01 23:54:00
8:54 PM,43.0,37.0,80,29.60,10.0,West,13.8,20.7,0.00,,Overcast,260,2012-11-02 00:54:00
9:54 PM,43.0,37.9,82,29.61,10.0,West,11.5,-,0.00,,Overcast,260,2012-11-02 01:54:00
10:54 PM,42.1,39.0,89,29.61,10.0,West,12.7,19.6,0.02,Rain,Light Rain,260,2012-11-02 02:54:00
11:54 PM,42.1,37.9,85,29.62,10.0,West,10.4,-,0.01,Rain,Light Rain,260,2012-11-02 03:54:00